Flag for United Kingdom Weather past 2 weeks in Telford, England, United Kingdom

Now
57 °F

Scattered clouds.


Feels Like: 53 °F
Forecast: 44 / 52 °F
Wind: 17 mph from West

Location: Shawbury

Current Time: May 28, 2015 at 5:15:23 PM

Latest Report: May 28, 2015 at 3:50 PM


Visibility: N/A

Pressure: 29.95 "Hg

Humidity: 44%

Dew point: 36 °F

Location of TelfordLocation

Historic Weather in Telford — Graph

°F

Telford temperature yesterday

Maximum temperature yesterday: 63 °F (at 1:50 PM)
Minimum temperature yesterday: 41 °F (at 4:50 AM)
Average temperature yesterday: 52 °F

Past Weeks' High & Low Weather Summary

 TemperatureHumidityPressure
High64 °F (May 22, 1:50 PM)94% (May 22, 6:50 PM)30.33 "Hg (May 22, 6:50 PM)
Low39 °F (May 19, 11:50 PM)41% (May 16, 3:50 PM)29.47 "Hg (May 19, 3:50 AM)
Average51 °F74%30.07 "Hg
* Reported May 13 3:50 PM — May 28 3:50 PM, Telford, Weather by CustomWeather, © 2015

Note: Actual official high and low records may vary slightly from our data, if they occured in-between our weather recording intervals... More about our weather records

Advertising

Telford weather history for previous 24 hours

 ConditionsComfort  
Time TempWeatherWind HumidityBarometerVisibility
3:50 PM
Thu, May 28
57 °FScattered clouds.17 mph44%29.95 "HgN/A
2:50 PM57 °FScattered clouds.16 mph48%29.95 "HgN/A
1:50 PM55 °FScattered clouds.18 mph51%29.95 "HgN/A
12:50 PM55 °FSprinkles. Scattered clouds.18 mph55%29.95 "HgN/A
11:50 AM54 °FScattered clouds.14 mph58%29.95 "HgN/A
10:50 AM55 °FScattered clouds.16 mph51%29.92 "HgN/A
9:50 AM54 °FScattered clouds.14 mph63%29.95 "HgN/A
8:50 AM52 °FPartly sunny.10 mph62%29.95 "HgN/A
7:50 AM48 °FSprinkles. Partly sunny.12 mph71%29.92 "HgN/A
6:50 AM48 °FPassing clouds.12 mph76%29.92 "HgN/A
5:50 AM46 °FPassing clouds.13 mph82%29.89 "HgN/A
4:50 AM48 °FPassing clouds.12 mph82%29.89 "HgN/A
3:50 AM48 °FPassing clouds.13 mph76%29.89 "HgN/A
2:50 AM50 °FPassing clouds.12 mph82%29.89 "HgN/A
1:50 AM50 °FPassing clouds.7 mph94%29.89 "HgN/A
12:50 AM50 °FPassing clouds.5 mph94%29.89 "HgN/A
11:50 PM
Wed, May 27
50 °FRain showers. Passing clouds.7 mph94%29.89 "HgN/A
10:50 PM52 °FPassing clouds.13 mph88%29.92 "HgN/A
9:50 PM50 °FPartly sunny.18 mph88%29.92 "HgN/A
8:50 PM50 °FPartly sunny.17 mph82%29.95 "HgN/A
7:50 PM52 °FScattered clouds.24 mph77%29.95 "HgN/A
6:50 PM55 °FPartly sunny.14 mph55%29.98 "HgN/A
5:50 PM57 °FDrizzle. Overcast.21 mph55%29.98 "HgN/A
Weather by CustomWeather, © 2015

See weather overviewHow to use our weather pages